{"data":{"norad_id":63227,"intl_designator":"2025-052T","name":"CLARITY-1","alt_names":[],"object_type":"PAYLOAD","status":"ACTIVE","operator":null,"country":"US","launch_date":"2025-03-15","launch_site_code":"AFWTR","launch_vehicle":null,"mission":null,"orbit_class":"UNKNOWN","rcs_meters":null,"size_class":null,"mass_kg":null,"dimensions":null,"purposes":[],"wikipedia_slug":null,"has_3d_model":false,"image_url":null,"decayed_at":null,"tle_current":{"epoch":"2026-05-25T03:25:29.699904Z","epoch_age_seconds":52901,"freshness":"FRESH","line1":"1 63227U 25052T   26145.14270486  .00377851  69526-4  48719-3 0  9999","line2":"2 63227  97.3968  64.5448 0006294 129.8848 230.2988 16.07164917 68004","mean_motion":16.07164917,"eccentricity":0.0006294,"inclination_deg":97.3968,"raan_deg":64.5448,"arg_perigee_deg":129.8848,"mean_anomaly_deg":230.2988,"bstar":0.00048719,"rev_number":6800,"period_min":89.598770155334,"perigee_km":250.45743573202,"apogee_km":258.80676547586,"semimajor_km":6632.7691006039,"source":"CELESTRAK","updated_at":"2026-05-25T13:38:03.579574Z"}}}